CW1172 Weather Reports


time (UTC)temp
C
wind
direction
speed
KPH
gust
KPH
rain 1hr
cm
rain 24hr
cm
rain mn
cm
humidity
%
barometer
mb
20260901143020 18 232 0.0 0.0 0.00 0.00 0.00 76 1009.0
20260901141532 18 221 0.0 0.0 0.00 0.00 0.00 76 1009.0
20260901140020 18 360 0.0 0.0 0.00 0.00 0.00 75 1009.0
20260901134521 19 207 0.0 0.0 0.00 0.00 0.00 74 1009.0
20260901133020 19 253 0.0 0.0 0.00 0.00 0.00 72 1009.0
20260901131520 20 249 0.0 0.0 0.00 0.00 0.00 72 1009.1
20260901130020 18 206 0.0 0.0 0.00 0.00 0.00 74 1009.0
20260901124518 18 229 0.0 0.0 0.00 0.00 0.00 74 1009.0
20260901123018 19 171 0.0 0.0 0.00 0.00 0.00 75 1009.0
20260901121518 18 225 0.0 0.0 0.00 0.00 0.00 74 1008.9
20260901120019 18 360 0.0 0.0 0.00 0.00 0.00 76 1008.8
20260901114519 19 360 0.0 0.0 0.00 0.00 0.00 72 1008.9
20260901113017 20 233 0.0 0.0 0.00 0.00 0.00 72 1008.8
20260901111517 20 250 0.0 0.0 0.00 0.00 0.00 74 1008.6
20260901110017 20 234 0.0 0.0 0.00 0.00 0.00 74 1008.5
20260901104515 20 257 0.0 0.0 0.00 0.00 0.00 74 1008.5
20260901103014 20 209 0.0 0.0 0.00 0.00 0.00 70 1008.4
20260901101513 20 201 0.0 0.0 0.00 0.00 0.00 71 1008.2
20260901100012 20 181 0.0 0.0 0.00 0.00 0.00 71 1008.1
20260901094509 20 251 0.0 0.0 0.00 0.00 0.00 73 1007.8
20260901093006 19 253 0.0 0.0 0.00 0.00 0.00 72 1007.8
20260901091506 19 220 0.0 0.0 0.00 0.00 0.00 73 1007.8
20260901090007 19 203 0.0 0.0 0.00 0.00 0.00 75 1007.8
20260901084505 18 207 0.0 0.0 0.00 0.00 0.00 77 1007.8
20260901083006 19 60 0.0 0.0 0.00 0.00 0.00 78 1007.7
20260901081503 19 161 0.0 0.0 0.00 0.00 0.00 79 1007.6
20260901080100 18 182 0.0 0.0 0.00 0.00 0.00 83 1007.5
20260901074609 17 223 0.0 0.0 0.00 0.00 0.00 85 1007.6
20260901073059 17 225 0.0 0.0 0.00 0.00 0.00 86 1007.5
20260901071555 17 125 0.0 0.0 0.00 0.00 0.00 89 1007.5
20260901070055 17 125 0.0 0.0 0.00 0.00 0.00 93 1007.4
20260901064551 16 125 0.0 0.0 0.00 0.00 0.00 94 1007.3
20260901063048 15 126 0.0 0.0 0.00 0.00 0.00 95 1007.3
20260901061544 14 126 0.0 0.0 0.00 0.00 0.00 94 1007.3
20260901060043 13 126 0.0 0.0 0.00 0.00 0.00 94 1007.1
20260901054542 13 125 0.0 0.0 0.00 0.00 0.00 94 1007.1
20260901053050 13 125 0.0 0.0 0.00 0.00 0.00 94 1007.1
20260901051541 13 126 0.0 0.0 0.00 0.00 0.00 94 1007.1
20260901050041 13 126 0.0 0.0 0.00 0.00 0.00 94 1007.1
20260901044540 13 125 0.0 0.0 0.00 0.00 0.00 94 1006.9
20260901043039 13 126 0.0 0.0 0.00 0.00 0.00 93 1006.8
20260901041543 13 126 0.0 0.0 0.00 0.00 0.00 93 1006.6
20260901040043 13 125 0.0 0.0 0.00 0.00 0.00 93 1006.5
20260901034536 14 126 0.0 0.0 0.00 0.00 0.00 93 1006.4
20260901033035 14 125 0.0 0.0 0.00 0.00 0.00 93 1006.4
20260901031534 14 125 0.0 0.0 0.00 0.00 0.00 93 1006.4
20260901030034 14 123 0.0 0.0 0.00 0.00 0.00 93 1006.3
20260901024533 14 124 0.0 0.0 0.00 0.00 0.00 93 1006.2
20260901023032 14 125 0.0 0.0 0.00 0.00 0.00 93 1006.2
20260901021531 14 125 0.0 0.0 0.00 0.00 0.00 93 1006.1
20260901020029 14 125 0.0 0.0 0.00 0.00 0.00 93 1006.1
20260901014529 14 124 0.0 0.0 0.00 0.00 0.00 93 1006.1
20260901013043 14 125 0.0 0.0 0.00 0.00 0.00 93 1006.0
20260901011536 14 125 0.0 0.0 0.00 0.00 0.00 93 1006.0
20260901010028 14 126 0.0 0.0 0.00 0.00 0.00 93 1005.9
20260901004528 14 126 0.0 0.0 0.00 0.00 0.00 93 1005.9
20260901003027 14 126 0.0 0.0 0.00 0.00 0.00 93 1005.8
20260901001532 13 125 0.0 0.0 0.00 0.00 0.00 93 1005.8
20260901000030 14 124 0.0 0.0 0.00 0.00 0.00 93 1005.8
20260831234526 14 123 0.0 0.0 0.00 0.00 0.00 92 1005.8
20260831233026 14 126 0.0 0.0 0.00 0.00 0.00 93 1005.7
20260831231525 14 126 0.0 0.0 0.00 0.00 0.00 93 1005.8
20260831230025 14 124 0.0 0.0 0.00 0.00 0.00 92 1005.8
20260831224525 14 126 0.0 0.0 0.00 0.00 0.00 92 1005.7
20260831223026 14 125 0.0 0.0 0.00 0.00 0.00 92 1005.6
20260831221522 14 125 0.0 0.0 0.00 0.00 0.00 92 1005.6
20260831220022 14 125 0.0 0.0 0.00 0.00 0.00 92 1005.6
20260831214525 15 125 0.0 0.0 0.00 0.00 0.00 92 1005.6
20260831213022 15 125 0.0 0.0 0.00 0.00 0.00 92 1005.6
20260831211519 15 126 0.0 0.0 0.00 0.00 0.00 92 1005.6
20260831210021 15 126 0.0 0.0 0.00 0.00 0.00 92 1005.6
20260831204520 15 126 0.0 0.0 0.00 0.00 0.00 91 1005.5
20260831203020 15 125 0.0 0.0 0.00 0.00 0.00 91 1005.5
20260831201521 15 125 0.0 0.0 0.00 0.00 0.00 91 1005.4
20260831200033 15 125 0.0 0.0 0.00 0.00 0.00 91 1005.5
20260831194525 15 126 0.0 0.0 0.00 0.00 0.00 91 1005.6
20260831193018 15 127 0.0 0.0 0.00 0.00 0.00 91 1005.5
20260831191521 15 126 0.0 0.0 0.00 0.00 0.00 91 1005.4
20260831190031 15 133 0.0 0.0 0.00 0.00 0.00 91 1005.2
20260831184519 15 144 0.0 0.0 0.00 0.00 0.00 90 1005.3
20260831183019 15 143 0.0 0.0 0.00 0.00 0.00 90 1005.3
20260831181526 15 143 0.0 0.0 0.00 0.00 0.00 90 1005.1
20260831180017 16 143 0.0 0.0 0.00 0.00 0.00 90 1005.1
20260831174517 16 144 0.0 0.0 0.00 0.00 0.00 89 1005.1
20260831173017 16 144 0.0 0.0 0.00 0.00 0.00 89 1005.1
20260831171517 16 144 0.0 0.0 0.00 0.00 0.00 88 1005.1
20260831170017 16 169 0.0 0.0 0.00 0.00 0.00 88 1005.1
20260831164519 16 171 0.0 0.0 0.00 0.00 0.00 87 1005.1
20260831163019 16 175 0.0 0.0 0.00 0.00 0.00 84 1005.1
20260831161515 17 176 0.0 0.0 0.00 0.00 0.00 81 1005.1
20260831160015 17 152 0.0 0.0 0.00 0.00 0.00 78 1005.0
20260831154515 18 165 0.0 0.0 0.00 0.00 0.00 76 1004.8
20260831153013 19 180 0.0 0.0 0.00 0.00 0.00 76 1004.8
20260831151514 20 226 0.0 0.0 0.00 0.00 0.00 73 1004.7
20260831150014 20 203 0.0 0.0 0.00 0.00 0.00 71 1004.7
20260831144513 21 194 0.0 0.0 0.00 0.00 0.00 70 1004.8